{"data":{"norad_id":66652,"epoch":"2026-09-19T13:00:20.808000Z","epoch_age_seconds":203629,"freshness":"STALE","line1":"1 66652U 25274C   26262.54190750  .00001807  00000+0  17726-3 0  9995","line2":"2 66652  97.7481 190.2725 0012857  49.6596 310.5744 14.93401464 44290","mean_motion":14.93401464,"eccentricity":0.0012857,"inclination_deg":97.7481,"raan_deg":190.2725,"arg_perigee_deg":49.6596,"mean_anomaly_deg":310.5744,"bstar":0.00017726,"rev_number":4429,"period_min":96.424172247899,"perigee_km":578.38336991969,"apogee_km":596.29439460333,"semimajor_km":6965.4758822615,"source":"CELESTRAK","updated_at":"2026-09-21T09:00:16.115287Z"}}